Location: Plymouth
(43.7570°N, 71.6890°W)
Time: 11:07:21
(UTC-04:00)

Amateur Radio Satellites - All Passes

Search period start: 23 October 2014 10:37
Search period end: 24 October 2014 10:37
Location: Plymouth, 43.7570°N, 71.6890°W

Satellite Date Start Highest point End Downlink Frequencies (MHz)
Time Altitude Azimuth
FUNcube-1 23 Oct 11:06:00 11:10:18 70° 102° (ESE) 11:14:28 145.950 - 145.970 MHz USB
Oscar 11 23 Oct 11:12:51 11:16:55 41° 289° (WNW) 11:20:57 145.825 FM, Beacon 2401.500 USB
Sapphire 23 Oct 11:48:39 11:52:28 19° 40° (NE) 11:56:17 437.095 MHz 1200 baud AX-25 AFSK
HO-68 23 Oct 11:50:23 11:55:40 23° 305° (NW) 12:00:57 435.675 MHz FM
ZACube-1 23 Oct 11:57:27 12:01:18 32° 291° (WNW) 12:05:02 437.345 MHz
Oscar 19 23 Oct 11:59:24 12:02:19 15° 59° (ENE) 12:05:13 437.125 CW, 437.150 USB
JAS-1B 23 Oct 12:04:19 12:07:49 17° 57° (ENE) 12:11:14 435.800 - 435.900 CW/SSB
SO-50 23 Oct 12:06:49 12:07:30 10° 106° (ESE) 12:08:10 436.795 FM
UKube-1 23 Oct 12:07:23 12:09:25 13° 300° (WNW) 12:11:27 145.840 MHz, 145.915 MHz
PCSat 23 Oct 12:11:01 12:15:38 27° 45° (NE) 12:20:12 145.825 MHz
KITSAT 1 23 Oct 12:25:33 12:33:24 59° 115° (ESE) 12:41:17 435.175 FM
ISS 23 Oct 12:26:42 12:28:16 13° 131° (SE) 12:29:50 145.800 FM
Oscar 16 23 Oct 12:42:40 12:47:22 36° 67° (ENE) 12:52:03 437.025 USB, Beacon 2401.1428
FUNcube-1 23 Oct 12:44:21 12:46:04 12° 300° (WNW) 12:47:47 145.950 - 145.970 MHz USB
AO-Echo 23 Oct 12:52:09 12:55:54 23° 63° (ENE) 12:59:46 ?
Uribyol 2 23 Oct 12:59:56 13:04:04 24° 63° (ENE) 13:08:13 436.500 FM
ITAMSAT 1 23 Oct 13:05:26 13:09:39 26° 64° (ENE) 13:13:52 435.822 SSB
Gurwin Techsat 1B 23 Oct 13:16:33 13:20:00 18° 60° (ENE) 13:23:27 435.225 FM
TMSAT-1 23 Oct 13:28:59 13:32:20 17° 60° (ENE) 13:35:41 436.925 FM
Sapphire 23 Oct 13:31:11 13:36:39 89° 240° (WSW) 13:42:05 437.095 MHz 1200 baud AX-25 AFSK
Oscar 19 23 Oct 13:35:51 13:41:01 78° 257° (WSW) 13:46:11 437.125 CW, 437.150 USB
SO-50 23 Oct 13:42:44 13:47:15 89° 124° (SE) 13:51:54 436.795 FM
AO-27 23 Oct 13:49:28 13:54:36 62° 72° (ENE) 13:59:46 436.795 MHz FM
JAS-1B 23 Oct 13:51:53 13:57:55 75° 256° (WSW) 14:03:36 435.800 - 435.900 CW/SSB
PCSat 23 Oct 13:54:04 13:59:22 55° 245° (WSW) 14:04:37 145.825 MHz
ISS 23 Oct 14:01:10 14:04:30 88° 327° (NNW) 14:07:52 145.800 FM
Oscar 10/S400 23 Oct 14:16:04 14:33:03 38° 154° (SSE) 14:58:29 145.825 - 145.975 CW/USB, Beacon 145.810 USB
KITSAT 1 23 Oct 14:21:40 14:29:09 40° 316° (NW) 14:36:40 435.175 FM
Oscar 16 23 Oct 14:22:16 14:26:45 30° 265° (W) 14:31:15 437.025 USB, Beacon 2401.1428
AO-Echo 23 Oct 14:29:40 14:34:20 47° 261° (W) 14:39:12 ?
AO-7 23 Oct 14:33:33 14:40:23 30° 54° (NE) 14:47:14 29.400 - 29.500 MHz
Uribyol 2 23 Oct 14:38:13 14:43:14 48° 261° (W) 14:48:18 436.500 FM
Uosat F 23 Oct 14:38:26 14:39:50 11° 56° (NE) 14:41:14 435.120 FM
ITAMSAT 1 23 Oct 14:43:54 14:48:52 45° 261° (W) 14:53:54 435.822 SSB
Gurwin Techsat 1B 23 Oct 14:54:07 14:59:24 70° 258° (WSW) 15:04:43 435.225 FM
TMSAT-1 23 Oct 15:06:22 15:11:39 73° 257° (WSW) 15:16:59 436.925 FM
UOSAT-12 23 Oct 15:14:53 15:19:30 72° 122° (ESE) 15:24:13 437.025 FM, 437.400 FM
Saudisat 1A 23 Oct 15:15:33 15:18:38 18° 38° (NE) 15:21:42 436.775 MHz
Sapphire 23 Oct 15:17:00 15:19:14 13° 258° (WSW) 15:21:29 437.095 MHz 1200 baud AX-25 AFSK
SO-50 23 Oct 15:25:28 15:28:29 17° 325° (NW) 15:31:34 436.795 FM
AO-27 23 Oct 15:31:06 15:34:32 18° 269° (W) 15:38:00 436.795 MHz FM
JAS-2 23 Oct 15:31:40 15:34:20 13° 49° (NE) 15:37:07 435.800 - 435.900 CW/SSB, 435.910 FM
ISS 23 Oct 15:38:42 15:41:33 25° 347° (NNW) 15:44:24 145.800 FM
Uosat F 23 Oct 16:12:44 16:17:45 77° 74° (ENE) 16:22:48 435.120 FM
KITSAT 1 23 Oct 16:22:24 16:27:12 16° 344° (NNW) 16:32:02 435.175 FM
AO-7 23 Oct 16:24:18 16:32:32 71° 254° (WSW) 16:40:50 29.400 - 29.500 MHz
Hamsat 23 Oct 16:47:59 16:51:11 21° 66° (ENE) 16:54:22 145.90 MHz
Saudisat 1A 23 Oct 16:54:17 16:58:43 75° 238° (WSW) 17:03:06 436.775 MHz
UOSAT-12 23 Oct 16:56:40 17:00:10 20° 322° (NW) 17:03:42 437.025 FM, 437.400 FM
JAS-2 23 Oct 17:12:05 17:17:55 67° 71° (ENE) 17:24:36 435.800 - 435.900 CW/SSB, 435.910 FM
ISS 23 Oct 17:16:19 17:19:00 22° 7° (N) 17:21:41 145.800 FM
OPAL 23 Oct 17:47:58 17:52:45 46° 101° (ESE) 17:57:29 ?
Uosat F 23 Oct 17:54:48 17:57:07 13° 271° (W) 17:59:25 435.120 FM
KITSAT 1 23 Oct 18:21:49 18:26:34 16° 15° (NNE) 18:31:18 435.175 FM
Hamsat 23 Oct 18:23:03 18:26:55 35° 263° (W) 18:30:48 145.90 MHz
AO-7 23 Oct 18:23:13 18:26:47 13° 274° (W) 18:30:22 29.400 - 29.500 MHz
HO-68 23 Oct 18:47:42 18:51:33 16° 49° (NE) 18:55:25 435.675 MHz FM
ISS 23 Oct 18:52:56 18:56:14 53° 27° (NNE) 18:59:30 145.800 FM
JAS-2 23 Oct 18:59:26 19:03:45 20° 273° (W) 19:08:26 435.800 - 435.900 CW/SSB, 435.910 FM
SO-67 23 Oct 19:00:39 19:04:05 82° 76° (ENE) 19:07:33 435.3500 MHz FM
OPAL 23 Oct 19:27:27 19:31:21 24° 299° (WNW) 19:35:14 ?
STRAND 1 23 Oct 19:29:55 19:35:01 58° 101° (E) 19:40:04 ?
AO-40 23 Oct 19:49:46 23:14:55 27° 128° (SE) 00:38:43 Beacon 2401.320
RS-15 23 Oct 20:14:32 20:16:28 11° 93° (E) 20:18:23 29.354 - 29.394 USB, Beacon 29.352 USB
KITSAT 1 23 Oct 20:17:14 20:24:41 38° 43° (NE) 20:32:06 435.175 FM
ISS 23 Oct 20:30:01 20:32:44 23° 224° (SW) 20:35:26 145.800 FM
HO-68 23 Oct 20:30:55 20:38:00 70° 69° (ENE) 20:45:09 435.675 MHz FM
SO-50 23 Oct 20:33:13 20:36:52 21° 39° (NE) 20:40:33 436.795 FM
Oscar 11 23 Oct 20:34:11 20:37:10 19° 64° (ENE) 20:40:09 145.825 FM, Beacon 2401.500 USB
STRAND 1 23 Oct 21:10:05 21:13:46 20° 299° (WNW) 21:17:27 ?
ZACube-1 23 Oct 21:18:58 21:22:41 25° 67° (ENE) 21:26:21 437.345 MHz
UKube-1 23 Oct 21:25:53 21:30:12 72° 74° (ENE) 21:34:35 145.840 MHz, 145.915 MHz
FUNcube-1 23 Oct 22:03:01 22:07:34 67° 74° (ENE) 22:12:05 145.950 - 145.970 MHz USB
UOSAT-12 23 Oct 22:04:11 22:07:18 17° 35° (NE) 22:10:24 437.025 FM, 437.400 FM
Oscar 11 23 Oct 22:08:52 22:13:01 45° 261° (W) 22:17:12 145.825 FM, Beacon 2401.500 USB
KITSAT 1 23 Oct 22:12:35 22:20:30 61° 245° (WSW) 22:28:22 435.175 FM
SO-50 23 Oct 22:13:06 22:17:56 73° 238° (WSW) 22:22:48 436.795 FM
RS-15 23 Oct 22:15:32 22:26:11 59° 114° (ESE) 22:36:45 29.354 - 29.394 USB, Beacon 29.352 USB
HO-68 23 Oct 22:20:47 22:26:17 24° 268° (W) 22:31:51 435.675 MHz FM
ZACube-1 23 Oct 22:54:39 22:58:54 36° 263° (W) 23:03:06 437.345 MHz
UKube-1 23 Oct 23:05:39 23:06:54 11° 271° (W) 23:08:08 145.840 MHz, 145.915 MHz
FUNcube-1 23 Oct 23:42:13 23:44:22 13° 271° (W) 23:46:30 145.950 - 145.970 MHz USB
UOSAT-12 23 Oct 23:43:24 23:48:09 87° 56° (NE) 23:52:49 437.025 FM, 437.400 FM
MaSat-1 23 Oct 23:55:21 23:59:25 52° 114° (ESE) 00:03:07 437.345 MHz
KITSAT 1 24 Oct 00:12:46 00:14:13 11° 264° (W) 00:15:39 435.175 FM
RS-15 24 Oct 00:28:22 00:38:50 48° 319° (NW) 00:49:24 29.354 - 29.394 USB, Beacon 29.352 USB
Oscar 16 24 Oct 00:55:41 00:56:47 11° 87° (E) 00:57:53 437.025 USB, Beacon 2401.1428
UOSAT-12 24 Oct 01:25:57 01:27:34 12° 253° (WSW) 01:29:10 437.025 FM, 437.400 FM
MaSat-1 24 Oct 01:32:44 01:35:16 16° 308° (NW) 01:37:41 437.345 MHz
JAS-1B 24 Oct 01:32:53 01:38:34 28° 96° (E) 01:45:02 435.800 - 435.900 CW/SSB
Oscar 19 24 Oct 01:46:26 01:51:03 33° 96° (E) 01:55:39 437.125 CW, 437.150 USB
AO-27 24 Oct 02:02:07 02:05:54 20° 92° (E) 02:09:39 436.795 MHz FM
Oscar 16 24 Oct 02:31:42 02:36:52 88° 104° (ESE) 02:41:59 437.025 USB, Beacon 2401.1428
AO-Echo 24 Oct 02:35:03 02:40:15 52° 100° (E) 02:45:26 ?
RS-15 24 Oct 02:46:10 02:54:46 25° 352° (N) 03:03:30 29.354 - 29.394 USB, Beacon 29.352 USB
Uribyol 2 24 Oct 02:49:26 02:54:34 55° 101° (E) 02:59:39 436.500 FM
ITAMSAT 1 24 Oct 02:55:10 03:00:21 59° 101° (E) 03:05:29 435.822 SSB
PCSat 24 Oct 02:56:12 02:59:20 16° 104° (ESE) 03:02:28 145.825 MHz
Gurwin Techsat 1B 24 Oct 03:09:06 03:14:10 43° 98° (E) 03:19:12 435.225 FM
TMSAT-1 24 Oct 03:21:02 03:26:03 41° 98° (E) 03:31:01 436.925 FM
JAS-1B 24 Oct 03:23:03 03:29:23 56° 290° (WNW) 03:36:53 435.800 - 435.900 CW/SSB
Oscar 19 24 Oct 03:25:50 03:30:21 32° 294° (WNW) 03:34:50 437.125 CW, 437.150 USB
OPAL 24 Oct 03:28:11 03:30:58 15° 56° (NE) 03:33:44 ?
AO-27 24 Oct 03:40:38 03:45:45 55° 289° (WNW) 03:50:50 436.795 MHz FM
Oscar 16 24 Oct 04:13:02 04:15:29 14° 302° (WNW) 04:17:55 437.025 USB, Beacon 2401.1428
Sapphire 24 Oct 04:14:02 04:19:23 67° 117° (ESE) 04:24:47 437.095 MHz 1200 baud AX-25 AFSK
AO-Echo 24 Oct 04:14:33 04:18:39 23° 297° (WNW) 04:22:46 ?
Uosat F 24 Oct 04:19:56 04:23:46 21° 93° (E) 04:27:35 435.120 FM
JAS-2 24 Oct 04:23:11 04:25:03 11° 81° (E) 04:26:55 435.800 - 435.900 CW/SSB, 435.910 FM
AO-7 24 Oct 04:24:33 04:32:09 38° 98° (E) 04:39:42 29.400 - 29.500 MHz
Uribyol 2 24 Oct 04:29:47 04:33:38 21° 298° (WNW) 04:37:27 436.500 FM
ITAMSAT 1 24 Oct 04:35:39 04:39:23 20° 299° (WNW) 04:43:07 435.822 SSB
PCSat 24 Oct 04:36:38 04:42:03 77° 302° (WNW) 04:47:31 145.825 MHz
Gurwin Techsat 1B 24 Oct 04:49:30 04:53:55 27° 296° (WNW) 04:58:18 435.225 FM
TMSAT-1 24 Oct 05:01:19 05:05:47 28° 295° (WNW) 05:10:13 436.925 FM
RS-15 24 Oct 05:02:03 05:11:43 33° 27° (NNE) 05:21:38 29.354 - 29.394 USB, Beacon 29.352 USB
OPAL 24 Oct 05:04:01 05:09:11 84° 254° (WSW) 05:14:19 ?
STRAND 1 24 Oct 05:11:15 05:13:47 14° 58° (ENE) 05:16:20 ?
JAS-1B 24 Oct 05:18:05 05:18:56 10° 308° (NW) 05:19:47 435.800 - 435.900 CW/SSB
Uosat F 24 Oct 05:57:57 06:02:48 48° 290° (WNW) 06:07:38 435.120 FM
Sapphire 24 Oct 05:59:00 06:03:18 23° 317° (NW) 06:07:37 437.095 MHz 1200 baud AX-25 AFSK
JAS-2 24 Oct 06:03:47 06:11:28 60° 100° (E) 06:19:10 435.800 - 435.900 CW/SSB, 435.910 FM
Hamsat 24 Oct 06:07:04 06:10:54 34° 97° (E) 06:14:44 145.90 MHz
AO-7 24 Oct 06:17:10 06:25:09 53° 297° (WNW) 06:33:08 29.400 - 29.500 MHz
PCSat 24 Oct 06:22:59 06:26:24 17° 323° (NW) 06:29:49 145.825 MHz
STRAND 1 24 Oct 06:47:06 06:52:14 87° 256° (WSW) 06:57:26 ?
OPAL 24 Oct 06:48:00 06:48:46 10° 270° (W) 06:49:32 ?
Saudisat 1A 24 Oct 07:02:52 07:06:04 20° 112° (ESE) 07:09:18 436.775 MHz
RS-15 24 Oct 07:14:47 07:25:59 82° 55° (NE) 07:37:40 29.354 - 29.394 USB, Beacon 29.352 USB
Hamsat 24 Oct 07:43:25 07:46:40 22° 293° (WNW) 07:49:55 145.90 MHz
JAS-2 24 Oct 07:49:22 07:56:03 34° 298° (WNW) 08:02:51 435.800 - 435.900 CW/SSB, 435.910 FM
SO-67 24 Oct 07:55:26 07:58:54 82° 102° (ESE) 08:02:21 435.3500 MHz FM
HO-68 24 Oct 08:02:10 08:02:45 10° 84° (E) 08:03:21 435.675 MHz FM
AO-7 24 Oct 08:12:23 08:16:05 14° 319° (NW) 08:19:47 29.400 - 29.500 MHz
STRAND 1 24 Oct 08:31:05 08:32:10 11° 273° (W) 08:33:16 ?
Saudisat 1A 24 Oct 08:41:04 08:45:19 48° 310° (NW) 08:49:36 436.775 MHz
UKube-1 24 Oct 09:15:17 09:16:29 11° 89° (E) 09:17:41 145.840 MHz, 145.915 MHz
RS-15 24 Oct 09:28:14 09:37:13 29° 256° (WSW) 09:46:32 29.354 - 29.394 USB, Beacon 29.352 USB
MaSat-1 24 Oct 09:40:34 09:43:08 45° 247° (WSW) 09:45:29 437.345 MHz
HO-68 24 Oct 09:44:39 09:51:49 64° 103° (ESE) 09:58:56 435.675 MHz FM
FUNcube-1 24 Oct 09:53:32 09:54:40 11° 88° (E) 09:55:47 145.950 - 145.970 MHz USB
Oscar 11 24 Oct 09:55:17 09:59:02 28° 96° (E) 10:02:45 145.825 FM, Beacon 2401.500 USB
Saudisat 1A 24 Oct 10:25:01 10:25:57 11° 331° (NNW) 10:26:54 436.775 MHz
